Location: Wildcat Hills Observatory
(41.6350°N, 103.6812°W)
Time: 14:25:55
(UTC-06:00)

Cosmos 1634 Rocket - Visible Passes

Search period start: 20 August 2014 00:00
Search period end: 30 August 2014 00:00
Orbit: 959 x 994 km, 82.9° (Epoch: 19 August)

Date Brightness Start Highest point End Pass type
(mag) Time Alt. Az. Time Alt. Az. Time Alt. Az.
20 Aug 5.1 00:00:51 10° N 00:05:10 35° NE 00:05:10 35° NE visible
20 Aug 5.5 01:46:35 10° NNW 01:49:50 25° NW 01:49:50 25° NW visible
20 Aug 6.2 22:44:51 10° NE 22:45:51 10° ENE 22:45:51 10° ENE visible
21 Aug 4.8 00:26:13 10° N 00:30:31 46° N 00:30:31 46° N visible
21 Aug 6.1 02:13:27 10° NW 02:15:11 14° WNW 02:15:11 14° WNW visible
21 Aug 5.7 23:07:43 10° NNE 23:11:13 19° ENE 23:11:13 19° ENE visible
22 Aug 5.0 00:51:55 10° NNW 00:55:53 41° NNW 00:55:53 41° NNW visible
22 Aug 5.2 23:32:30 10° N 23:36:35 31° NE 23:36:35 31° NE visible
23 Aug 5.5 01:17:57 10° NNW 01:21:15 27° NW 01:21:15 27° NW visible
23 Aug 4.9 23:57:47 10° N 00:01:58 43° NNE 00:01:58 43° NNE visible
24 Aug 6.0 01:44:34 10° NW 01:46:38 16° WNW 01:46:38 16° WNW visible
24 Aug 5.8 22:39:35 10° NNE 22:42:41 17° ENE 22:42:41 17° ENE visible
25 Aug 5.0 00:23:24 10° NNW 00:27:21 42° NNW 00:27:21 42° NNW visible
25 Aug 5.3 23:04:11 10° NNE 23:08:05 27° NE 23:08:05 27° NE visible
26 Aug 5.5 00:49:21 10° NNW 00:52:45 30° NW 00:52:45 30° NW visible
26 Aug 4.9 23:29:22 10° N 23:33:29 40° NNE 23:33:29 40° NNE visible
27 Aug 6.0 01:15:47 10° NW 01:18:10 18° NW 01:18:10 18° NW visible
27 Aug 5.9 22:11:33 10° NNE 22:14:14 15° ENE 22:14:14 15° ENE visible
27 Aug 4.9 23:54:54 10° N 23:58:54 43° NNW 23:58:54 43° NNW visible
28 Aug 5.4 22:35:53 10° NNE 22:39:40 25° NE 22:39:40 25° NE visible
29 Aug 5.4 00:20:46 10° NNW 00:24:20 33° NW 00:24:20 33° NW visible
29 Aug 5.0 23:00:58 10° N 23:05:06 37° NE 23:05:06 37° NE visible
